Weather History for Estevan, SK

Change the Weather History Date:

Saturday, October 13, 2012

  Actual Average Record
Temperature  
Mean Temperature 44 °F -  
Max Temperature 55 °F 52 °F 68 °F (1996)
Min Temperature 32 °F 28 °F 19 °F (2006)
Degree Days  
Heating Degree Days 22    
Moisture  
Dew Point 33 °F    
Average Humidity 75    
Maximum Humidity 93    
Minimum Humidity 47    
Precipitation  
Precipitation 0.00 in - - ()
Sea Level Pressure  
Sea Level Pressure 29.83 in    
Wind  
Wind Speed 8 mph ()    
Max Wind Speed 15 mph    
Max Gust Speed -    
Visibility 14.3 miles    
Events      
Averages and records for this station are not official NWS values.
T = Trace of Precipitation, MM = Missing Value Source: Averaged Metar Reports

Daily Weather History Graph

Daily Weather History Graph

Search for Another Location

Airport:

Trip Planner

Search our weather history database for the weather conditions in past years. The results will help you decide how hot, cold, wet, or windy it might be!

Date:

Astronomy

Oct. 13, 2012 Rise Set
Actual Time 7:10 AM CST 6:04 PM CST
Civil Twilight 6:38 AM CST 6:36 PM CST
Nautical Twilight 6:01 AM CST 7:13 PM CST
Astronomical Twilight 5:24 AM CST 7:50 PM CST
Moon 4:55 AM CST (10/13) 4:54 PM CST (10/13)
Length of Visible Light 11h 58m
Length of Day
10h 54m
Waning Crescent, 4% of the Moon is Illuminated
Oct 13
Waning Crescent
Oct 15
New
Oct 21
First Quarter
Oct 29
Full
Nov 6
Last Quarter

Hourly Weather History & Observations

Time (CST) Temp. Windchill Dew Point Humidity Pressure Visibility Wind Dir Wind Speed Gust Speed Precip Events Conditions
12:00 AM 40 °F - 34 °F 73% 29.65 in 15 mi South 4.6 mph - -   Overcast
1:00 AM 37.4 °F 30.8 °F 33.8 °F 87% 29.64 in 15.0 mi SW 9.2 mph - N/A   Overcast
2:00 AM 37.4 °F 32.1 °F 33.8 °F 87% 29.65 in 15.0 mi SW 6.9 mph - N/A   Scattered Clouds
3:00 AM 35.6 °F 32.8 °F 32.0 °F 87% 29.65 in 15.0 mi SW 3.5 mph - N/A   Partly Cloudy
5:00 AM 39.2 °F 32.5 °F 35.6 °F 87% 29.69 in 15.0 mi WSW 10.4 mph - N/A   Partly Cloudy
6:00 AM 36 °F - 33 °F 87% 29.73 in 15 mi NW 11.5 mph - -   Scattered Clouds
6:00 AM 35.6 °F 27.5 °F 33.8 °F 93% 29.73 in 15.0 mi NW 11.5 mph - N/A   Partly Cloudy
8:00 AM 33.8 °F 25.3 °F 30.2 °F 87% 29.77 in 15.0 mi WNW 11.5 mph - N/A   Mostly Cloudy
10:00 AM 41.0 °F 34.3 °F 33.8 °F 76% 29.85 in 12.0 mi NW 11.5 mph - N/A   Scattered Clouds
11:00 AM 44.6 °F 37.8 °F 33.8 °F 66% 29.88 in 12.0 mi NW 15.0 mph - N/A   Scattered Clouds
12:00 PM 48 °F - 35 °F 49% 29.87 in 12 mi NW 11.5 mph - -   Clear
12:00 PM 48.2 °F - 35.6 °F 62% 29.87 in 12.0 mi NW 11.5 mph - N/A   Mostly Cloudy
1:00 PM 51.8 °F - 35.6 °F 54% 29.86 in 12.0 mi NW 13.8 mph - N/A   Mostly Cloudy
2:00 PM 53.6 °F - 35.6 °F 51% 29.87 in 15.0 mi NNW 15.0 mph - N/A   Mostly Cloudy
3:00 PM 55.4 °F - 35.6 °F 47% 29.88 in 15.0 mi NW 15.0 mph - N/A   Mostly Cloudy
4:00 PM 53.6 °F - 35.6 °F 51% 29.89 in 15.0 mi NW 11.5 mph - N/A   Mostly Cloudy
7:00 PM 39.2 °F - 32.0 °F 75% 29.96 in 15.0 mi NW 1.2 mph - N/A   Scattered Clouds
8:00 PM 37.4 °F 33.8 °F 33.8 °F 87% 29.97 in 15.0 mi NW 4.6 mph - N/A   Scattered Clouds
9:00 PM 32.0 °F - 28.4 °F 87% 30.00 in 15.0 mi Calm Calm - N/A   Partly Cloudy
10:00 PM 33.8 °F 29.6 °F 30.2 °F 87% 30.02 in 15.0 mi NW 4.6 mph - N/A   Partly Cloudy
11:00 PM 32.0 °F 25.6 °F 30.2 °F 93% 30.02 in 15.0 mi NW 6.9 mph - N/A   Partly Cloudy